Weather History for Dayton, OH

Change the Weather History Date:

Friday, November 23, 2012

  Actual Average Record
Temperature  
Mean Temperature 42 °F 40 °F  
Max Temperature 54 °F 47 °F 72 °F (1931)
Min Temperature 30 °F 32 °F 13 °F (1950)
Degree Days  
Heating Degree Days 23 25  
Month to date heating degree days 510 473  
Since 1 July heating degree days 1010 920  
Cooling Degree Days 0 0  
Month to date cooling degree days 0 0  
Year to date cooling degree days 1264 891  
Moisture  
Dew Point 33 °F    
Average Humidity 77    
Maximum Humidity 96    
Minimum Humidity 57    
Precipitation  
Precipitation 0.03 in 0.12 in 1.26 in (1983)
Month to date precipitation 0.79 2.59  
Year to date precipitation 28.82 37.13  
Snow  
Snow 0.00 in 0.00 in 1.40 in (1956)
Month to date snowfall 0.2 0.3  
Since 1 July snowfall 0.9 0.7  
Since 1 September snowfall 0.9 0.7  
Snow Depth 0.00 in    
Sea Level Pressure  
Sea Level Pressure 30.02 in    
Wind  
Wind Speed 18 mph (West)    
Max Wind Speed 33 mph    
Max Gust Speed 44 mph    
Visibility 10 miles    
Events Rain    
T = Trace of Precipitation, MM = Missing Value Source: NWS Daily Summary

Daily Weather History Graph

Daily Weather History Graph

Search for Another Location

Airport:

Trip Planner

Search our weather history database for the weather conditions in past years. The results will help you decide how hot, cold, wet, or windy it might be!

Date:

Astronomy

Nov. 23, 2012 Rise Set
Actual Time 7:31 AM EST 5:15 PM EST
Civil Twilight 7:01 AM EST 5:44 PM EST
Nautical Twilight 6:28 AM EST 6:17 PM EST
Astronomical Twilight 5:56 AM EST 6:50 PM EST
Moon 2:29 PM EST (11/23) 2:49 AM EST (11/23)
Length of Visible Light 10h 42m
Length of Day
9h 43m
Waxing Gibbous, 79% of the Moon is Illuminated
Nov 23
Waxing Gibbous
Nov 28
Full
Dec 6
Last Quarter
Dec 13
New
Dec 20
First Quarter

Hourly Weather History & Observations

Time (EST) Temp. Windchill Dew Point Humidity Pressure Visibility Wind Dir Wind Speed Gust Speed Precip Events Conditions
12:56 AM 53.1 °F - 41.0 °F 64% 29.96 in 10.0 mi SSW 16.1 mph 23.0 mph N/A   Partly Cloudy
1:56 AM 54.0 °F - 42.1 °F 64% 29.94 in 10.0 mi SW 18.4 mph 25.3 mph 0.00 in   Overcast
2:21 AM 53.6 °F - 42.8 °F 67% 29.94 in 10.0 mi SSW 16.1 mph - 0.00 in Rain Light Rain
2:47 AM 53.6 °F - 42.8 °F 67% 29.94 in 10.0 mi SSW 16.1 mph - 0.00 in   Overcast
2:56 AM 54.0 °F - 42.1 °F 64% 29.94 in 10.0 mi SW 15.0 mph - 0.00 in   Overcast
3:24 AM 53.6 °F - 42.8 °F 67% 29.92 in 10.0 mi SW 15.0 mph - 0.00 in Rain Light Rain
3:43 AM 51.8 °F - 44.6 °F 76% 29.93 in 10.0 mi SSW 15.0 mph 23.0 mph 0.00 in Rain Light Rain
3:56 AM 53.1 °F - 43.0 °F 69% 29.92 in 10.0 mi SW 15.0 mph - 0.00 in   Overcast
4:56 AM 51.1 °F - 48.0 °F 89% 29.91 in 7.0 mi SW 12.7 mph - 0.03 in Rain Light Rain
5:22 AM 51.8 °F - 48.2 °F 88% 29.92 in 9.0 mi SW 16.1 mph - 0.00 in   Overcast
5:56 AM 51.1 °F - 50.0 °F 96% 29.92 in 7.0 mi WSW 16.1 mph - 0.00 in Rain Light Rain
6:24 AM 51.8 °F - 48.2 °F 88% 29.92 in 9.0 mi West 17.3 mph 24.2 mph 0.00 in   Overcast
6:56 AM 48.0 °F - 43.0 °F 83% 29.94 in 10.0 mi West 11.5 mph - 0.00 in   Overcast
7:42 AM 44.6 °F 36.9 °F 41.0 °F 87% 29.96 in 10.0 mi West 18.4 mph 24.2 mph N/A   Mostly Cloudy
7:51 AM 42.8 °F 33.5 °F 37.4 °F 81% 29.96 in 10.0 mi West 23.0 mph 32.2 mph N/A   Mostly Cloudy
7:56 AM 43.0 °F 34.2 °F 35.1 °F 74% 29.98 in 10.0 mi West 20.7 mph 32.2 mph N/A   Mostly Cloudy
8:56 AM 41.0 °F 32.5 °F 36.0 °F 82% 29.98 in 10.0 mi West 17.3 mph 23.0 mph N/A   Scattered Clouds
9:56 AM 41.0 °F 31.1 °F 33.1 °F 73% 30.00 in 10.0 mi West 23.0 mph 32.2 mph N/A   Scattered Clouds
10:37 AM 42.8 °F 34.3 °F 33.8 °F 70% 30.00 in 10.0 mi West 19.6 mph 25.3 mph N/A   Mostly Cloudy
10:56 AM 42.1 °F 33.1 °F 30.9 °F 65% 30.01 in 10.0 mi West 20.7 mph 28.8 mph N/A   Mostly Cloudy
11:30 AM 41.0 °F 30.0 °F 30.2 °F 65% 30.00 in 10.0 mi West 28.8 mph 36.8 mph N/A   Overcast
11:56 AM 42.1 °F 31.0 °F 28.9 °F 60% 30.00 in 10.0 mi West 32.2 mph 40.3 mph N/A   Overcast
12:56 PM 39.0 °F 28.5 °F 27.0 °F 62% 30.00 in 10.0 mi WNW 23.0 mph 31.1 mph N/A   Mostly Cloudy
1:56 PM 39.0 °F 28.3 °F 26.1 °F 60% 30.01 in 10.0 mi West 24.2 mph 39.1 mph N/A   Mostly Cloudy
2:56 PM 37.0 °F 26.2 °F 25.0 °F 62% 30.02 in 10.0 mi West 21.9 mph 33.4 mph N/A   Overcast
3:56 PM 35.1 °F 23.8 °F 24.1 °F 64% 30.06 in 10.0 mi WNW 20.7 mph 33.4 mph N/A   Overcast
4:16 PM 33.8 °F 21.6 °F 24.8 °F 70% 30.06 in 10.0 mi WNW 23.0 mph 34.5 mph N/A   Overcast
4:56 PM 33.1 °F 21.5 °F 23.0 °F 66% 30.11 in 9.0 mi WNW 19.6 mph 28.8 mph N/A   Overcast
5:56 PM 30.9 °F 18.4 °F 21.9 °F 69% 30.14 in 10.0 mi WNW 20.7 mph 27.6 mph N/A   Overcast
6:56 PM 30.9 °F 19.8 °F 21.0 °F 67% 30.17 in 10.0 mi NW 16.1 mph 29.9 mph N/A   Overcast
7:56 PM 30.0 °F 19.1 °F 19.9 °F 66% 30.18 in 10.0 mi WNW 15.0 mph 21.9 mph N/A   Overcast
8:56 PM 30.0 °F 20.5 °F 19.9 °F 66% 30.19 in 10.0 mi WNW 11.5 mph - N/A   Overcast
9:17 PM 30.2 °F 19.8 °F 19.4 °F 64% 30.16 in 10.0 mi WNW 13.8 mph - N/A   Overcast
9:56 PM 30.0 °F 19.1 °F 19.0 °F 64% 30.19 in 10.0 mi West 15.0 mph - N/A   Overcast
10:56 PM 30.0 °F 20.0 °F 19.0 °F 64% 30.19 in 10.0 mi West 12.7 mph 20.7 mph N/A   Overcast
11:56 PM 30.0 °F 20.5 °F 19.9 °F 66% 30.17 in 10.0 mi West 11.5 mph - N/A   Overcast